Tracking 19212 objects as of 16-Jul-2018
HD Live streaming from Space Station
objects crossing your sky now

NIMBUS 2 DEB

Track NIMBUS 2 DEB now!
10-day predictions


NORAD ID: 38181
Int'l Code: 1966-040AZ
Perigee: 1,007.6 km
Apogee: 1,081.8 km
Inclination: 100.7 °
Period: 105.9 minutes
Semi major axis: 7415 km
RCS: 0.003 m2 (small)
Launch date: May 15, 1966
Source: United States (US)
Launch site: AIR FORCE WESTERN TEST RANGE (AFWTR)

Note: This is SATELLITE DEBRIS
aabbcc
Your satellite tracking list
Your tracking list is empty




NASA's NSSDC Master Catalog

Two Line Element Set (TLE):
1 38181U 66040AZ  18183.56147170  .00002166  00000-0  29718-2 0  9993
2 38181 100.7111  86.5903 0050062 119.7454   1.2421 13.59483589378844
Source of the keplerian elements: AFSPC